Miscellaneous Local Product
Issued by NWS Hastings, NE

Home | Current Version | Previous Version | Text Only | Print | Product List | Glossary On
Versions: 1 2 3 4 5 6 7 8 9 10 11 12 13 14 15 16 17 18 19 20 21 22 23 24 25 26 27 28 29 30 31 32 33 34 35 36 37 38 39 40 41 42 43 44 45 46 47 48 49 50
732
AXUS43 KGID 192302
MISGRI

GID CWA HOURLY WEATHER ROUNDUP
NATIONAL WEATHER SERVICE HASTINGS NE
500 PM CST FRI JAN 19 2018

NOTE: "FAIR" INDICATES FEW OR NO CLOUDS BELOW 12,000 FEET WITH NO
SIGNIFICANT WEATHER AND/OR OBSTRUCTIONS TO VISIBILITY.

...SOUTH CENTRAL NEBRASKA...

CITY           SKY/WX    TMP DP  RH WIND       PRES   REMARKS
GRAND ISLAND   CLOUDY    49  32  52 S8        29.67R
KEARNEY        CLOUDY    42  34  73 S7        29.66R
HASTINGS       CLOUDY    49  24  37 SW6       29.68R
ORD            CLOUDY    49  32  52 N6        29.66R
YORK           CLOUDY    46  32  57 S10       29.66S
AURORA         CLOUDY    48  26  42 S13       29.65F
LEXINGTON      CLOUDY    46  37  71 CALM      29.67R
HOLDREGE       CLOUDY    50  32  50 S7        29.66S
HEBRON         CLOUDY    44  30  58 CALM      29.69S

...NEBRASKA PANHANDLE...

CITY           SKY/WX    TMP DP  RH WIND       PRES   REMARKS
CHADRON        CLOUDY    43  32  65 N7        29.70R
ALLIANCE       CLOUDY    39  32  76 E5        29.67R
SCOTTSBLUFF    CLOUDY    40  32  73 CALM      29.67R
SIDNEY         CLOUDY    44  28  53 SW9       29.69R

...WESTERN AND NORTH CENTRAL NEBRASKA...

CITY           SKY/WX    TMP DP  RH WIND       PRES   REMARKS
VALENTINE      CLOUDY    44  32  62 NW7       29.69R
AINSWORTH      CLOUDY    40  33  76 N8        29.68R WCI  35
ONEILL         CLOUDY    43  36  76 NW8       29.67R
BROKEN BOW     CLOUDY    49  33  54 N8        29.67R
IMPERIAL       CLOUDY    53  31  42 CALM      29.68R
NORTH PLATTE   CLOUDY    43  33  68 NW5       29.68R
MCCOOK         CLOUDY    54  27  35 CALM      29.66R

...EASTERN NEBRASKA...

CITY           SKY/WX    TMP DP  RH WIND       PRES   REMARKS
NORFOLK        CLOUDY    45  35  68 SW6       29.62R
SO SIOUX CITY  CLOUDY    51  32  48 W7        29.62R
TEKAMAH        CLOUDY    46  30  53 S12       29.64R
COLUMBUS       CLOUDY    49  30  48 SW5       29.67R
ALBION         PTCLDY    49  36  59 CALM      29.65R
OMAHA EPPLEY   CLOUDY    42  30  62 S14       29.67S
OFFUTT AFB     CLOUDY    39  30  68 SE13      29.67F WCI  32
MILLARD        CLOUDY    44  31  61 S3        29.68R
LINCOLN        CLOUDY    44  29  55 S15       29.69S
NEBRASKA CITY  CLOUDY    41  32  71 SW7       29.71R
BEATRICE       CLOUDY    43  31  63 S9        29.71R
FALLS CITY     CLOUDY    43  29  57 S9        29.72R

...NORTHERN KANSAS...

CITY           SKY/WX    TMP DP  RH WIND       PRES   REMARKS
GOODLAND       CLOUDY    61  21  21 N5        29.68R
HILL CITY      CLOUDY    61  20  20 SE7       29.65R
NORTON         CLEAR     54  18  24 N8        29.65R
PHILLIPSBURG   CLEAR     57  19  23 SE3       29.65S
SMITH CENTER     N/A     52  19  28 SE5       29.67S
BELOIT         CLEAR     54  23  30 SE8       29.68S
HAYS           CLOUDY    59  19  21 S16       29.66R
RUSSELL        CLOUDY    60  21  22 S16       29.66S
CONCORDIA      CLOUDY    47  26  44 S13       29.69R
SALINA         CLOUDY    50  28  42 S13       29.73R
TOPEKA         CLOUDY    47  30  51 S8        29.78F



USA.gov is the U.S. government's official web portal to all federal, state and local government web resources and services.